Regional Weather Roundup
Issued by NWS Columbia, SC

Home | Current Version | Previous Version | Text Only | Print | Product List | Glossary On
Versions: 1 2 3 4 5 6 7 8 9 10 11 12 13 14 15 16 17 18 19 20 21 22 23 24 25 26 27 28 29 30 31 32 33 34 35 36 37 38 39 40 41 42 43 44 45 46 47 48 49 50
000
ASUS42 KCAE 261710
RWRCAE
REGIONAL WEATHER ROUNDUP
NATIONAL WEATHER SERVICE COLUMBIA SC
1200 PM EST WED NOV 26 2014

NOTE: "FAIR" INDICATES FEW OR NO CLOUDS BELOW 12,000 FEET WITH NO
SIGNIFICANT WEATHER AND/OR OBSTRUCTIONS TO VISIBILITY.

NOT ALL STATIONS ARE QUALITY CONTROLLED BY THE NATIONAL
WEATHER SERVICE. USE DATA WITH CAUTION...ESPECIALLY
DEWPOINT OBSERVATIONS.

SCZ001>056-GAZ040-063>065-077-261800-
...UPSTATE SOUTH CAROLINA...

CITY           SKY/WX    TMP DP  RH WIND       PRES   REMARKS
ANDERSON       MOSUNNY   52  44  74 W6        30.03F
LIBERTY        PTSUNNY   52  47  82 MISG      30.02F
SPARTANBURG    FAIR      52  43  71 NW3       30.03S
CLEMSON        MOSUNNY   53  40  61 W6        30.03F
GREENVILLE     CLOUDY    50  43  77 SW6       30.02F
GREENWOOD      CLOUDY    51  44  77 CALM      30.05S
GREER          CLOUDY    49  44  83 SW3       30.01F
ROCK HILL      PTSUNNY   49  44  83 N12       30.01S
CHESTER        CLOUDY    52  45  76 N8        30.02R
LAURENS        CLOUDY    50  43  76 NW6       30.03S


...CENTRAL SOUTH CAROLINA...

CITY           SKY/WX    TMP DP  RH WIND       PRES   REMARKS
COLUMBIA APT   PTSUNNY   53  45  74 NW7       30.02R
COLUMBIA OWENS PTSUNNY   53  45  74 NW8       30.03S
DARLINGTON     CLOUDY    48  45  87 NW8G17    29.99R
FLORENCE       LGT RAIN  50  47  89 NW10G22   29.98R FOG
MCENTIRE ANGB  PTSUNNY   53  48  83 NW13      30.02S
ORANGEBURG     CLOUDY    53  46  77 NW9       30.02S
SUMTER SHAW    PTSUNNY   50  46  87 NW13      29.98S
NEWBERRY       PTSUNNY   52  52 100 W8        30.06S
AIKEN          PTSUNNY   55  46  71 W12G17    30.07R
BARNWELL       PTSUNNY   55  48  76 W5        30.04S
CAMDEN         CLOUDY    48  46  93 NW9       30.01R
LANCASTER      LGT RAIN  48  48 100 NW6       30.01S
WINNSBORO      PTSUNNY   50  46  87 NW10      30.01S


...EASTERN AND COASTAL SOUTH CAROLINA...

CITY           SKY/WX    TMP DP  RH WIND       PRES   REMARKS
MYRTLE BEACH   LGT RAIN  52  46  82 W9        29.91S
N MYRTLE BCH   LGT RAIN  51  48  89 N8        29.89R
CONWAY         CLOUDY    50  50 100 W3        29.94R
MARION         CLOUDY    50  48  93 W12       29.95R
FLORENCE       LGT RAIN  50  47  89 NW10G22   29.98R FOG
DARLINGTON     CLOUDY    48  45  87 NW8G17    29.99R
CHARLESTON APT CLOUDY    53  50  89 NW8       30.00F
WALTERBORO     CLOUDY    52 N/A N/A NW7       30.03F
BEAUFORT       CLOUDY    54  50  86 W12       30.03F


...EASTERN GEORGIA...

CITY           SKY/WX    TMP DP  RH WIND       PRES   REMARKS
AUGUSTA BUSH F CLOUDY    54  45  71 NW8       30.05S
AUGUSTA DANIEL PTSUNNY   55  46  71 NW7       30.05F
THOMSON        MOSUNNY   55  51  85 W3        30.10F
WASHINGTON     FAIR      57  50  77 W8        30.05F
CLAXTON        FAIR      55  34  44 W10G16    30.08F
SYLVANIA       CLOUDY    53  51  92 NW6       30.06F
STATESBORO     CLOUDY    54  53  98 NW9       30.06F
SAVANNAH       PTSUNNY   55  48  76 NW10      30.06F


...SOUTHERN NORTH CAROLINA...

CITY           SKY/WX    TMP DP  RH WIND       PRES   REMARKS
CHARLOTTE      CLOUDY    47  41  80 N12       30.01S
MONROE         CLOUDY    47  42  83 N13       29.98F
WADESBORO      RAIN      47  45  93 NW9       29.98F
ROCKINGHAM     DRIZZLE   46  45  95 NW8       29.97R
RUTHERFORDTON  CLOUDY    49  43  80 W7        30.01F
ASHEVILLE      MOSUNNY   47  37  68 N8        30.01S

$$



USA.gov is the U.S. government's official web portal to all federal, state and local government web resources and services.